Regional Weather Roundup
Issued by NWS

Home | Current Version | Previous Version | Text Only | Print | Product List | Glossary Off
Versions: 1 2 3 4 5 6 7 8 9 10 11 12 13 14 15 16 17 18 19 20 21 22 23 24 25 26 27 28 29 30 31 32 33 34 35 36 37 38 39 40 41 42 43 44 45 46 47 48 49 50

000
ASUS43 KDMX 281603
RWRIA

WEATHER ROUNDUP FOR IOWA
NATIONAL WEATHER SERVICE DES MOINES IA
1100 AM CDT THU JUL 28 2016

NOTE: "FAIR" INDICATES FEW OR NO CLOUDS BELOW 12,000 FEET WITH NO
SIGNIFICANT WEATHER AND/OR OBSTRUCTIONS TO VISIBILITY.

* - THESE STATIONS ARE NOT NWS STATIONS...THUS NOT UNDER NWS
QUALITY CONTROL.  THEY ALSO DO NOT REPORT WEATHER SUCH
AS PRECIPITATION OR FOG.

IAZ001>003-012>014-020>022-031>034-043>046-281700-
   NORTHWEST IOWA

CITY           SKY/WX    TMP DP  RH WIND       PRES   REMARKS
CARROLL *      MOSUNNY   75  66  73 N14       30.03S
CHEROKEE *     PTSUNNY   72  66  81 N3        30.04F
DENISON *      MOSUNNY   75  66  73 N5G13     30.01F
LE MARS *      MOSUNNY   75  64  69 NW7       30.05F
SHELDON *      CLOUDY    66  64  94 N6        30.06S
SIOUX CITY     SUNNY     78  59  51 VRB6      30.04
SPENCER        CLOUDY    71  61  70 N9        30.05F
STORM LAKE *   MOSUNNY   72  66  83 NW7       30.06F
$$

IAZ055>058-069>071-079>083-090>094-281700-
   SOUTHWEST IOWA

CITY           SKY/WX    TMP DP  RH WIND       PRES   REMARKS
ATLANTIC *     SUNNY     77  68  73 N8        30.02S
CLARINDA *       N/A     79  68  69 MISG      30.03R HX  81
CRESTON *      SUNNY     77  64  65 N12       30.02R
HARLAN  *      MOSUNNY   75  68  78 N9        30.06S
LAMONI         SUNNY     78  68  71 N12       29.99  HX  80
RED OAK *      SUNNY     79  68  69 NE7       30.01F HX  81
SHENANDOAH *   SUNNY     79  70  73 N7        30.02S HX  81
$$

IAZ047>049-059>061-072>074-084-281700-
   CENTRAL IOWA

CITY           SKY/WX    TMP DP  RH WIND       PRES   REMARKS
AMES           CLOUDY    70  66  87 N12       30.01
ANKENY *         N/A    N/A N/A N/A MISG        N/A
BOONE *        CLOUDY    68  64  88 NW13      30.02S
CHARITON *       N/A    N/A N/A N/A MISG        N/A
DES MOINES     MOSUNNY   78  66  66 N12G21    29.99R HX  80
GRINNELL*      CLOUDY    69  64  81 NW8G18    30.00R
KNOXVILLE *    PTSUNNY   75  66  73 N13G21    29.97R
MARSHALLTOWN   CLOUDY    71  65  81 MISG      30.00R
NEWTON *       CLOUDY    70  66  88 N15       29.99R
PELLA *        PTSUNNY   74  65  72 N8G21     30.00R
PERRY *        CLOUDY    74  68  81 N10G17    30.02R
$$

IAZ004>006-015-016-023>025-035-036-281700-
   NORTH CENTRAL IOWA

CITY           SKY/WX    TMP DP  RH WIND       PRES   REMARKS
ALGONA *       PTSUNNY   66  64  94 NW7       30.05S
ESTHERVILLE    CLOUDY    68  63  84 N9        30.05S
FORT DODGE *   CLOUDY    66  63  88 N7        30.05R
MASON CITY     CLOUDY    70  64  81 NW13      30.03R
IOWA FALLS *   PTSUNNY   72  65  77 W9        30.02R
$$

IAZ007>011-017>019-026>030-037>042-050>054-066-281700-
   NORTHEAST IOWA

CITY           SKY/WX    TMP DP  RH WIND       PRES   REMARKS
CEDAR RAPIDS   CLOUDY    72  67  84 NW12      29.95
CHARLES CITY * CLOUDY    70  70 100 NW9       29.99S
CLINTON *      SUNNY     80  71  74 CALM      29.91S HX  84
DECORAH *      CLOUDY    68  68 100 N7        29.96R
DUBUQUE        PTSUNNY   79  69  71 N3        29.93  HX  81
MONTICELLO *   CLOUDY    73  70  88 NW9       29.93R
OELWEIN *      CLOUDY    73  68  83 NW13      29.96R
WATERLOO       CLOUDY    74  66  76 N10       29.95S
$$

IAZ064-065-067-068-078-281700-
   EAST CENTRAL IOWA

CITY           SKY/WX    TMP DP  RH WIND       PRES   REMARKS
DAVENPORT      PTSUNNY   80  69  69 NW3       29.91  HX  83
IOWA CITY      PTSUNNY   75  67  76 NW14      29.95R
MUSCATINE *    MOSUNNY   81  70  69 W7        29.92R HX  84
QUAD CITIES    MOSUNNY   84  69  60 W6        29.90  HX  88
$$

IAZ062-063-075>077-085>089-095>099-281700-
   SOUTHEAST IOWA

CITY           SKY/WX    TMP DP  RH WIND       PRES   REMARKS
BURLINGTON     MOSUNNY   81  72  74 NW8       29.92  HX  85
KEOKUK *       MOSUNNY   82  72  69 NW5       29.92S HX  87
OSKALOOSA *      N/A     75  68  77 N14       29.96R
OTTUMWA        SUNNY     78  67  68 NW13      29.94  HX  80
WASHINGTON *   MOSUNNY   77  70  78 N8G15     29.94S
$$

ABBREVIATIONS USED IN REMARKS
   TC - TEMPERATURES IN CELSIUS
  WCI - WIND CHILL INDEX
   HX - HEAT INDEX
  VSB - VISIBILITY
$$




USA.gov is the U.S. government's official web portal to all federal, state and local government web resources and services.